TimeCST,TemperatureF,Dew PointF,Humidity,Sea Level PressureIn,VisibilityMPH,Wind Direction,Wind SpeedMPH,Gust SpeedMPH,PrecipitationIn,Events,Conditions,WindDirDegrees,DateUTC
12:15 AM,43.0,34.2,71,30.15,10.0,WNW,9.2,17.3,N/A,,Clear,300,2013-11-10 06:15:00
12:35 AM,42.3,32.9,69,30.16,10.0,WNW,10.4,18.4,N/A,,Clear,300,2013-11-10 06:35:00
12:55 AM,41.5,32.0,69,30.17,10.0,WNW,12.7,18.4,N/A,,Clear,290,2013-11-10 06:55:00
1:15 AM,40.8,31.6,70,30.17,10.0,WNW,15.0,20.7,N/A,,Clear,290,2013-11-10 07:15:00
1:35 AM,40.5,30.2,67,30.17,10.0,WNW,11.5,19.6,N/A,,Clear,290,2013-11-10 07:35:00
1:55 AM,40.1,29.3,65,30.17,10.0,WNW,12.7,18.4,N/A,,Clear,300,2013-11-10 07:55:00
2:15 AM,39.7,28.8,65,30.19,10.0,WNW,9.2,-,N/A,,Clear,290,2013-11-10 08:15:00
2:35 AM,38.3,29.7,71,30.19,10.0,WNW,6.9,-,N/A,,Clear,290,2013-11-10 08:35:00
2:55 AM,37.6,30.2,75,30.19,10.0,West,9.2,-,N/A,,Clear,280,2013-11-10 08:55:00
3:15 AM,37.6,30.6,76,30.20,10.0,West,10.4,16.1,N/A,,Clear,280,2013-11-10 09:15:00
3:35 AM,37.6,30.2,75,30.20,10.0,WNW,10.4,-,N/A,,Clear,290,2013-11-10 09:35:00
3:55 AM,37.4,30.2,75,30.21,10.0,WNW,11.5,-,N/A,,Clear,290,2013-11-10 09:55:00
4:15 AM,37.2,30.2,76,30.22,10.0,WNW,11.5,17.3,N/A,,Clear,290,2013-11-10 10:15:00
4:35 AM,36.7,30.2,77,30.23,10.0,WNW,12.7,18.4,N/A,,Clear,290,2013-11-10 10:35:00
4:55 AM,36.7,29.8,76,30.24,10.0,WNW,11.5,16.1,N/A,,Clear,290,2013-11-10 10:55:00
5:15 AM,35.8,29.3,77,30.25,10.0,WNW,11.5,16.1,N/A,,Clear,290,2013-11-10 11:15:00
5:35 AM,35.4,29.3,78,30.27,10.0,WNW,10.4,-,N/A,,Clear,290,2013-11-10 11:35:00
5:55 AM,34.7,29.3,81,30.27,10.0,WNW,9.2,-,N/A,,Clear,290,2013-11-10 11:55:00
6:15 AM,34.3,29.1,81,30.28,10.0,WNW,10.4,-,N/A,,Clear,290,2013-11-10 12:15:00
6:35 AM,33.8,28.9,82,30.29,10.0,WNW,10.4,-,N/A,,Clear,290,2013-11-10 12:35:00
6:55 AM,33.8,28.9,82,30.30,10.0,WNW,6.9,-,N/A,,Clear,290,2013-11-10 12:55:00
7:15 AM,34.0,29.1,82,30.31,10.0,WNW,9.2,-,N/A,,Clear,290,2013-11-10 13:15:00
7:35 AM,35.1,28.9,78,30.32,10.0,WNW,11.5,-,N/A,,Clear,290,2013-11-10 13:35:00
7:55 AM,36.3,29.3,76,30.33,10.0,WNW,10.4,-,N/A,,Clear,290,2013-11-10 13:55:00
8:15 AM,37.8,30.0,74,30.34,10.0,West,9.2,-,N/A,,Clear,280,2013-11-10 14:15:00
8:35 AM,38.5,29.8,71,30.34,10.0,WNW,9.2,-,N/A,,Clear,290,2013-11-10 14:35:00
8:55 AM,39.4,30.0,69,30.35,10.0,WNW,10.4,18.4,N/A,,Clear,290,2013-11-10 14:55:00
9:15 AM,40.5,30.2,67,30.35,10.0,WNW,11.5,16.1,N/A,,Clear,300,2013-11-10 15:15:00
9:35 AM,41.5,30.2,64,30.36,10.0,WNW,6.9,-,N/A,,Clear,300,2013-11-10 15:35:00
9:55 AM,42.4,29.3,60,30.36,10.0,WNW,10.4,16.1,N/A,,Clear,300,2013-11-10 15:55:00
10:15 AM,43.5,30.0,59,30.37,10.0,NW,10.4,-,N/A,,Clear,320,2013-11-10 16:15:00
10:35 AM,44.6,30.2,57,30.37,10.0,WNW,10.4,16.1,N/A,,Clear,300,2013-11-10 16:35:00
10:55 AM,44.4,29.8,57,30.37,10.0,WNW,11.5,16.1,N/A,,Clear,300,2013-11-10 16:55:00
11:15 AM,45.3,30.2,56,30.35,10.0,NW,9.2,-,N/A,,Clear,310,2013-11-10 17:15:00
11:35 AM,45.1,30.6,57,30.34,10.0,WNW,8.1,-,N/A,,Clear,300,2013-11-10 17:35:00
11:55 AM,45.9,30.4,55,30.33,10.0,NW,6.9,-,N/A,,Clear,310,2013-11-10 17:55:00
12:15 PM,46.6,30.9,54,30.33,10.0,North,5.8,-,N/A,,Clear,360,2013-11-10 18:15:00
12:35 PM,46.4,31.1,55,30.33,10.0,WNW,6.9,-,N/A,,Clear,290,2013-11-10 18:35:00
12:55 PM,46.8,30.6,53,30.34,10.0,WNW,5.8,-,N/A,,Clear,300,2013-11-10 18:55:00
1:15 PM,47.1,31.3,54,30.33,10.0,West,6.9,-,N/A,,Clear,270,2013-11-10 19:15:00
1:35 PM,47.1,30.2,52,30.33,10.0,West,6.9,-,N/A,,Clear,260,2013-11-10 19:35:00
1:55 PM,47.3,30.2,52,30.33,10.0,West,8.1,-,N/A,,Clear,280,2013-11-10 19:55:00
2:15 PM,47.5,30.6,52,30.33,10.0,West,6.9,-,N/A,,Clear,270,2013-11-10 20:15:00
2:35 PM,47.3,30.2,52,30.33,10.0,West,3.5,-,N/A,,Clear,280,2013-11-10 20:35:00
2:55 PM,47.3,30.4,52,30.32,10.0,West,4.6,-,N/A,,Clear,280,2013-11-10 20:55:00
3:15 PM,47.3,30.4,52,30.33,10.0,West,6.9,-,N/A,,Clear,260,2013-11-10 21:15:00
3:35 PM,47.3,30.0,51,30.32,10.0,West,3.5,-,N/A,,Clear,280,2013-11-10 21:35:00
3:55 PM,46.4,30.0,53,30.32,10.0,West,3.5,-,N/A,,Clear,260,2013-11-10 21:55:00
4:15 PM,45.1,31.1,58,30.32,10.0,WSW,5.8,-,N/A,,Clear,240,2013-11-10 22:15:00
4:35 PM,42.4,31.5,65,30.33,10.0,WSW,5.8,-,N/A,,Clear,240,2013-11-10 22:35:00
4:55 PM,41.7,31.5,67,30.32,10.0,WSW,5.8,-,N/A,,Clear,240,2013-11-10 22:55:00
5:15 PM,39.4,30.9,72,30.32,10.0,SW,3.5,-,N/A,,Clear,230,2013-11-10 23:15:00
5:35 PM,37.8,30.2,74,30.32,10.0,SSW,4.6,-,N/A,,Clear,210,2013-11-10 23:35:00
5:55 PM,36.7,29.7,76,30.31,10.0,SSE,3.5,-,N/A,,Clear,150,2013-11-10 23:55:00
6:15 PM,35.1,28.9,78,30.31,10.0,Calm,Calm,-,N/A,,Scattered Clouds,0,2013-11-11 00:15:00
6:35 PM,36.1,30.4,80,30.31,10.0,South,4.6,-,N/A,,Mostly Cloudy,180,2013-11-11 00:35:00
6:55 PM,37.2,32.5,83,30.31,10.0,SW,4.6,-,N/A,,Overcast,220,2013-11-11 00:55:00
7:15 PM,38.5,32.5,79,30.31,10.0,SSW,6.9,-,N/A,,Overcast,210,2013-11-11 01:15:00
7:35 PM,39.9,32.5,75,30.31,10.0,SSW,6.9,-,N/A,,Overcast,210,2013-11-11 01:35:00
7:55 PM,40.3,32.2,73,30.31,10.0,SW,5.8,-,N/A,,Overcast,220,2013-11-11 01:55:00
8:15 PM,39.7,32.5,75,30.31,10.0,SW,6.9,-,N/A,,Overcast,220,2013-11-11 02:15:00
8:35 PM,39.6,32.9,77,30.30,10.0,SSW,5.8,-,N/A,,Overcast,210,2013-11-11 02:35:00
8:55 PM,40.1,32.9,75,30.30,10.0,SW,5.8,-,N/A,,Overcast,220,2013-11-11 02:55:00
9:15 PM,40.3,32.9,75,30.30,10.0,SW,6.9,-,N/A,,Overcast,220,2013-11-11 03:15:00
9:35 PM,40.1,33.1,76,30.29,10.0,SSW,5.8,-,N/A,,Overcast,210,2013-11-11 03:35:00
9:55 PM,38.7,32.9,80,30.28,10.0,SW,5.8,-,N/A,,Overcast,220,2013-11-11 03:55:00
10:15 PM,38.7,33.3,81,30.27,10.0,SW,5.8,-,N/A,,Overcast,220,2013-11-11 04:15:00
10:35 PM,39.2,33.4,80,30.27,10.0,SSW,6.9,-,N/A,,Overcast,210,2013-11-11 04:35:00
10:55 PM,40.1,33.3,77,30.27,10.0,SSW,8.1,-,N/A,,Overcast,210,2013-11-11 04:55:00
11:15 PM,39.7,33.3,78,30.27,10.0,SW,6.9,-,N/A,,Overcast,220,2013-11-11 05:15:00
11:35 PM,39.7,33.4,78,30.26,10.0,SSW,5.8,-,N/A,,Overcast,210,2013-11-11 05:35:00
11:55 PM,40.1,33.3,77,30.26,10.0,SW,5.8,-,N/A,,Overcast,220,2013-11-11 05:55:00